Time,TemperatureF,DewpointF,PressureIn,WindDirection,WindDirectionDegrees,WindSpeedMPH,WindSpeedGustMPH,Humidity,HourlyPrecipIn,Conditions,Clouds,dailyrainin,SoftwareType,DateUTC
2013-10-07 00:04:00,63.3,61.3,29.71,North,0,0.0,0.0,93,0.00,,---,0.00,VWS V13.01,2013-10-07 04:04:00,
2013-10-07 00:09:00,63.3,61.3,29.71,North,0,0.0,0.0,93,0.00,,---,0.00,VWS V13.01,2013-10-07 04:09:00,
2013-10-07 00:14:00,63.3,61.3,29.68,North,0,0.0,0.0,93,0.00,,---,0.00,VWS V13.01,2013-10-07 04:14:00,
2013-10-07 00:19:00,63.3,61.6,29.68,North,0,0.0,0.0,94,0.00,,---,0.00,VWS V13.01,2013-10-07 04:19:00,
2013-10-07 00:24:00,63.3,61.6,29.68,North,0,0.0,0.0,94,0.00,,---,0.00,VWS V13.01,2013-10-07 04:24:00,
2013-10-07 00:29:00,63.5,61.8,29.68,North,0,0.0,0.0,94,0.00,,---,0.00,VWS V13.01,2013-10-07 04:29:00,
2013-10-07 00:34:00,63.5,61.8,29.68,North,0,0.0,0.0,94,0.00,,---,0.00,VWS V13.01,2013-10-07 04:34:00,
2013-10-07 00:44:00,63.7,61.9,29.68,North,0,0.0,0.0,94,0.00,,---,0.00,VWS V13.01,2013-10-07 04:44:00,
2013-10-07 00:54:00,64.0,62.3,29.68,North,0,0.0,0.0,94,0.00,,---,0.00,VWS V13.01,2013-10-07 04:54:00,
2013-10-07 00:59:00,64.0,62.3,29.68,North,0,0.0,0.0,94,0.00,,---,0.00,VWS V13.01,2013-10-07 04:59:00,
2013-10-07 01:04:00,64.0,62.3,29.68,North,0,0.0,0.0,94,0.00,,---,0.00,VWS V13.01,2013-10-07 05:04:00,
2013-10-07 01:09:00,64.0,62.3,29.68,North,0,0.0,0.0,94,0.00,,---,0.00,VWS V13.01,2013-10-07 05:09:00,
2013-10-07 01:14:00,64.2,62.5,29.68,North,0,0.0,0.0,94,0.00,,---,0.00,VWS V13.01,2013-10-07 05:14:00,
2013-10-07 01:19:00,64.2,62.5,29.68,North,0,0.0,0.0,94,0.00,,---,0.00,VWS V13.01,2013-10-07 05:19:00,
2013-10-07 01:24:00,64.2,62.5,29.68,North,0,0.0,0.0,94,0.00,,---,0.00,VWS V13.01,2013-10-07 05:24:00,
2013-10-07 01:29:00,64.2,62.5,29.68,North,0,0.0,0.0,94,0.00,,---,0.00,VWS V13.01,2013-10-07 05:29:00,
2013-10-07 01:34:00,64.2,62.5,29.68,North,0,0.0,0.0,94,0.00,,---,0.00,VWS V13.01,2013-10-07 05:34:00,
2013-10-07 01:39:00,64.2,62.5,29.68,North,0,0.0,0.0,94,0.00,,---,0.00,VWS V13.01,2013-10-07 05:39:00,
2013-10-07 01:44:00,64.2,62.5,29.68,North,0,0.0,0.0,94,0.00,,---,0.00,VWS V13.01,2013-10-07 05:44:00,
2013-10-07 01:49:00,64.2,62.5,29.68,North,0,0.0,0.0,94,0.00,,---,0.00,VWS V13.01,2013-10-07 05:49:00,
2013-10-07 01:54:00,64.4,62.3,29.68,North,0,0.0,0.0,93,0.00,,---,0.00,VWS V13.01,2013-10-07 05:54:00,
2013-10-07 01:59:00,64.2,62.2,29.68,North,0,0.0,0.0,93,0.00,,---,0.00,VWS V13.01,2013-10-07 05:59:00,
2013-10-07 02:04:00,64.2,62.5,29.68,North,0,0.0,0.0,94,0.00,,---,0.00,VWS V13.01,2013-10-07 06:04:00,
2013-10-07 02:09:00,64.2,62.5,29.68,North,0,0.0,0.0,94,0.00,,---,0.00,VWS V13.01,2013-10-07 06:09:00,
2013-10-07 02:14:00,64.2,62.5,29.65,North,0,0.0,0.0,94,0.00,,---,0.00,VWS V13.01,2013-10-07 06:14:00,
2013-10-07 02:19:00,64.4,62.3,29.65,North,0,0.0,0.0,93,0.00,,---,0.00,VWS V13.01,2013-10-07 06:19:00,
2013-10-07 02:24:00,64.4,62.3,29.65,North,0,0.0,0.0,93,0.00,,---,0.00,VWS V13.01,2013-10-07 06:24:00,
2013-10-07 02:29:00,64.4,62.3,29.65,North,0,0.0,0.0,93,0.00,,---,0.00,VWS V13.01,2013-10-07 06:29:00,
2013-10-07 02:34:00,64.6,62.5,29.65,North,0,0.0,0.0,93,0.00,,---,0.00,VWS V13.01,2013-10-07 06:34:00,
2013-10-07 02:39:00,64.6,62.5,29.65,North,0,0.0,0.0,93,0.00,,---,0.00,VWS V13.01,2013-10-07 06:39:00,
2013-10-07 02:44:00,64.8,62.7,29.65,North,0,0.0,0.0,93,0.00,,---,0.00,VWS V13.01,2013-10-07 06:44:00,
2013-10-07 02:49:00,64.9,62.9,29.65,North,0,0.0,0.0,93,0.00,,---,0.00,VWS V13.01,2013-10-07 06:49:00,
2013-10-07 02:54:00,65.1,63.0,29.65,North,0,0.0,0.0,93,0.00,,---,0.00,VWS V13.01,2013-10-07 06:54:00,
2013-10-07 02:59:00,65.1,63.0,29.65,North,0,0.0,0.0,93,0.00,,---,0.00,VWS V13.01,2013-10-07 06:59:00,
2013-10-07 03:04:00,65.1,63.0,29.65,North,0,0.0,0.0,93,0.00,,---,0.00,VWS V13.01,2013-10-07 07:04:00,
2013-10-07 03:09:00,65.3,63.2,29.65,North,0,0.0,0.0,93,0.00,,---,0.00,VWS V13.01,2013-10-07 07:09:00,
2013-10-07 03:14:00,65.5,63.4,29.65,North,0,0.0,0.0,93,0.00,,---,0.00,VWS V13.01,2013-10-07 07:14:00,
2013-10-07 03:19:00,65.5,63.4,29.65,North,0,0.0,0.0,93,0.00,,---,0.00,VWS V13.01,2013-10-07 07:19:00,
2013-10-07 03:24:00,65.5,63.4,29.65,North,0,0.0,0.0,93,0.00,,---,0.00,VWS V13.01,2013-10-07 07:24:00,
2013-10-07 03:29:00,65.7,63.6,29.65,North,0,0.0,0.0,93,0.00,,---,0.00,VWS V13.01,2013-10-07 07:29:00,
2013-10-07 03:34:00,65.8,63.8,29.65,North,0,0.0,0.0,93,0.00,,---,0.00,VWS V13.01,2013-10-07 07:34:00,
2013-10-07 03:39:00,66.2,64.1,29.65,North,0,0.0,0.0,93,0.00,,---,0.00,VWS V13.01,2013-10-07 07:39:00,
2013-10-07 03:44:00,66.2,63.8,29.62,North,0,0.0,0.0,92,0.00,,---,0.00,VWS V13.01,2013-10-07 07:44:00,
2013-10-07 03:49:00,66.6,64.2,29.62,North,0,0.0,0.0,92,0.00,,---,0.00,VWS V13.01,2013-10-07 07:49:00,
2013-10-07 03:54:00,66.6,64.2,29.62,North,0,0.0,0.0,92,0.00,,---,0.00,VWS V13.01,2013-10-07 07:54:00,
2013-10-07 03:59:00,66.7,64.3,29.62,North,0,0.0,0.0,92,0.00,,---,0.00,VWS V13.01,2013-10-07 07:59:00,
2013-10-07 04:04:00,66.9,64.5,29.62,North,0,0.0,0.0,92,0.00,,---,0.00,VWS V13.01,2013-10-07 08:04:00,
2013-10-07 04:09:00,66.9,64.5,29.62,North,0,0.0,0.0,92,0.00,,---,0.00,VWS V13.01,2013-10-07 08:09:00,
2013-10-07 04:14:00,67.1,64.7,29.62,North,0,0.0,0.0,92,0.00,,---,0.00,VWS V13.01,2013-10-07 08:14:00,
2013-10-07 04:19:00,67.1,64.7,29.62,North,0,0.0,0.0,92,0.00,,---,0.00,VWS V13.01,2013-10-07 08:19:00,
2013-10-07 04:29:00,67.3,64.9,29.62,North,0,0.0,0.0,92,0.00,,---,0.00,VWS V13.01,2013-10-07 08:29:00,
2013-10-07 04:34:00,67.3,64.9,29.62,North,0,0.0,0.0,92,0.00,,---,0.00,VWS V13.01,2013-10-07 08:34:00,
2013-10-07 04:39:00,67.5,65.1,29.62,North,0,0.0,0.0,92,0.00,,---,0.00,VWS V13.01,2013-10-07 08:39:00,
2013-10-07 04:44:00,67.5,65.1,29.62,North,0,0.0,0.0,92,0.00,,---,0.00,VWS V13.01,2013-10-07 08:44:00,
2013-10-07 04:49:00,67.5,65.1,29.62,North,0,0.0,0.0,92,0.00,,---,0.00,VWS V13.01,2013-10-07 08:49:00,
2013-10-07 04:54:00,67.5,65.1,29.62,North,0,0.0,0.0,92,0.00,,---,0.00,VWS V13.01,2013-10-07 08:54:00,
2013-10-07 04:59:00,67.5,65.1,29.62,North,0,0.0,0.0,92,0.00,,---,0.00,VWS V13.01,2013-10-07 08:59:00,
2013-10-07 05:04:00,67.6,65.2,29.62,North,0,0.0,0.0,92,0.00,,---,0.00,VWS V13.01,2013-10-07 09:04:00,
2013-10-07 05:14:00,67.6,65.2,29.62,North,0,0.0,0.0,92,0.00,,---,0.00,VWS V13.01,2013-10-07 09:14:00,
2013-10-07 05:19:00,67.6,65.2,29.62,North,0,0.0,0.0,92,0.00,,---,0.00,VWS V13.01,2013-10-07 09:19:00,
2013-10-07 05:24:00,67.6,65.2,29.62,North,0,0.0,0.0,92,0.00,,---,0.00,VWS V13.01,2013-10-07 09:24:00,
2013-10-07 05:29:00,67.8,65.4,29.62,North,0,0.0,0.0,92,0.00,,---,0.00,VWS V13.01,2013-10-07 09:29:00,
2013-10-07 05:34:00,67.8,65.4,29.62,North,0,0.0,0.0,92,0.00,,---,0.00,VWS V13.01,2013-10-07 09:34:00,
2013-10-07 05:39:00,67.8,65.4,29.62,North,0,0.0,0.0,92,0.00,,---,0.00,VWS V13.01,2013-10-07 09:39:00,
2013-10-07 05:44:00,67.8,65.4,29.62,North,0,0.0,0.0,92,0.00,,---,0.00,VWS V13.01,2013-10-07 09:44:00,
2013-10-07 05:49:00,67.8,65.4,29.62,North,0,0.0,0.0,92,0.00,,---,0.00,VWS V13.01,2013-10-07 09:49:00,
2013-10-07 05:54:00,67.8,65.4,29.62,North,0,0.0,0.0,92,0.00,,---,0.00,VWS V13.01,2013-10-07 09:54:00,
2013-10-07 05:59:00,67.8,65.4,29.59,North,0,0.0,0.0,92,0.00,,---,0.00,VWS V13.01,2013-10-07 09:59:00,
2013-10-07 06:04:00,67.8,65.4,29.59,North,0,0.0,0.0,92,0.00,,---,0.00,VWS V13.01,2013-10-07 10:04:00,
2013-10-07 06:09:00,67.8,65.4,29.59,North,0,0.0,0.0,92,0.00,,---,0.00,VWS V13.01,2013-10-07 10:09:00,
2013-10-07 06:14:00,67.8,65.4,29.59,North,0,0.0,0.0,92,0.00,,---,0.00,VWS V13.01,2013-10-07 10:14:00,
2013-10-07 06:19:00,67.8,65.4,29.59,North,0,0.0,0.0,92,0.00,,---,0.00,VWS V13.01,2013-10-07 10:19:00,
2013-10-07 06:24:00,68.0,65.6,29.59,North,0,0.0,0.0,92,0.00,,---,0.00,VWS V13.01,2013-10-07 10:24:00,
2013-10-07 06:29:00,68.0,65.6,29.59,North,0,0.0,0.0,92,0.00,,---,0.00,VWS V13.01,2013-10-07 10:29:00,
2013-10-07 06:34:00,68.0,65.6,29.59,North,0,0.0,0.0,92,0.00,,---,0.00,VWS V13.01,2013-10-07 10:34:00,
2013-10-07 06:39:00,68.2,65.8,29.59,North,0,0.0,0.0,92,0.00,,---,0.00,VWS V13.01,2013-10-07 10:39:00,
2013-10-07 06:44:00,68.4,65.9,29.59,North,0,0.0,0.0,92,0.00,,---,0.00,VWS V13.01,2013-10-07 10:44:00,
2013-10-07 06:49:00,68.4,65.9,29.59,North,0,0.0,0.0,92,0.00,,---,0.00,VWS V13.01,2013-10-07 10:49:00,
2013-10-07 06:54:00,68.4,65.9,29.59,North,0,0.0,0.0,92,0.00,,---,0.00,VWS V13.01,2013-10-07 10:54:00,
2013-10-07 06:59:00,68.4,65.9,29.59,North,0,0.0,0.0,92,0.00,,---,0.00,VWS V13.01,2013-10-07 10:59:00,
2013-10-07 07:04:00,68.4,65.9,29.59,North,0,0.0,0.0,92,0.00,,---,0.00,VWS V13.01,2013-10-07 11:04:00,
2013-10-07 07:14:00,68.4,65.9,29.59,North,0,0.0,0.0,92,0.00,,---,0.00,VWS V13.01,2013-10-07 11:14:00,
2013-10-07 07:19:00,68.5,66.1,29.59,North,0,0.0,0.0,92,0.00,,---,0.00,VWS V13.01,2013-10-07 11:19:00,
2013-10-07 07:24:00,68.5,66.1,29.59,North,0,0.0,0.0,92,0.00,,---,0.00,VWS V13.01,2013-10-07 11:24:00,
2013-10-07 07:29:00,68.5,66.1,29.59,North,0,0.0,0.0,92,0.00,,---,0.00,VWS V13.01,2013-10-07 11:29:00,
2013-10-07 07:34:00,68.5,66.1,29.59,North,0,0.0,0.0,92,0.00,,---,0.00,VWS V13.01,2013-10-07 11:34:00,
2013-10-07 07:39:00,68.5,66.4,29.59,North,0,0.0,0.0,93,0.00,,---,0.00,VWS V13.01,2013-10-07 11:39:00,
2013-10-07 07:44:00,68.7,66.6,29.59,North,0,0.0,0.0,93,0.00,,---,0.00,VWS V13.01,2013-10-07 11:44:00,
2013-10-07 07:49:00,68.7,66.6,29.59,North,0,0.0,0.0,93,0.00,,---,0.00,VWS V13.01,2013-10-07 11:49:00,
2013-10-07 07:59:00,68.9,66.8,29.59,North,0,0.0,0.0,93,0.00,,---,0.00,VWS V13.01,2013-10-07 11:59:00,
2013-10-07 08:04:00,68.9,66.8,29.59,North,0,0.0,0.0,93,0.00,,---,0.00,VWS V13.01,2013-10-07 12:04:00,
2013-10-07 08:09:00,68.9,66.8,29.59,North,0,0.0,0.0,93,0.00,,---,0.00,VWS V13.01,2013-10-07 12:09:00,
2013-10-07 08:14:00,69.1,67.0,29.59,North,0,0.0,0.0,93,0.00,,---,0.00,VWS V13.01,2013-10-07 12:14:00,
2013-10-07 08:19:00,69.1,67.0,29.59,North,0,0.0,0.0,93,0.00,,---,0.00,VWS V13.01,2013-10-07 12:19:00,
2013-10-07 08:24:00,69.3,67.2,29.59,North,0,0.0,0.0,93,0.00,,---,0.00,VWS V13.01,2013-10-07 12:24:00,
2013-10-07 08:29:00,69.3,67.2,29.59,North,0,0.0,0.0,93,0.00,,---,0.00,VWS V13.01,2013-10-07 12:29:00,
2013-10-07 08:34:00,69.4,67.3,29.59,North,0,0.0,0.0,93,0.00,,---,0.00,VWS V13.01,2013-10-07 12:34:00,
2013-10-07 08:39:00,69.6,67.2,29.59,North,0,0.0,0.0,92,0.00,,---,0.00,VWS V13.01,2013-10-07 12:39:00,
2013-10-07 08:44:00,69.6,67.2,29.59,North,0,0.0,0.0,92,0.00,,---,0.00,VWS V13.01,2013-10-07 12:44:00,
2013-10-07 08:49:00,69.8,67.1,29.59,North,0,0.0,0.0,91,0.00,,---,0.00,VWS V13.01,2013-10-07 12:49:00,
2013-10-07 08:54:00,69.8,67.1,29.59,North,0,0.0,0.0,91,0.00,,---,0.00,VWS V13.01,2013-10-07 12:54:00,
2013-10-07 08:59:00,70.0,67.2,29.59,North,0,0.0,0.0,91,0.00,,---,0.00,VWS V13.01,2013-10-07 12:59:00,
2013-10-07 09:04:00,70.2,67.1,29.59,North,0,0.0,0.0,90,0.00,,---,0.00,VWS V13.01,2013-10-07 13:04:00,
2013-10-07 09:09:00,70.2,66.8,29.59,North,0,0.0,0.0,89,0.00,,---,0.00,VWS V13.01,2013-10-07 13:09:00,
2013-10-07 09:14:00,70.5,66.8,29.56,North,0,0.0,0.0,88,0.00,,---,0.00,VWS V13.01,2013-10-07 13:14:00,
2013-10-07 09:19:00,70.5,66.8,29.56,North,0,0.0,0.0,88,0.00,,---,0.00,VWS V13.01,2013-10-07 13:19:00,
2013-10-07 09:24:00,70.7,66.0,29.56,North,0,0.0,0.0,85,0.00,,---,0.00,VWS V13.01,2013-10-07 13:24:00,
2013-10-07 09:29:00,70.7,65.6,29.56,North,0,0.0,0.0,84,0.00,,---,0.00,VWS V13.01,2013-10-07 13:29:00,
2013-10-07 09:39:00,70.7,64.9,29.56,North,0,0.0,0.0,82,0.00,,---,0.00,VWS V13.01,2013-10-07 13:39:00,
2013-10-07 09:44:00,70.7,64.9,29.56,North,0,0.0,0.0,82,0.00,,---,0.00,VWS V13.01,2013-10-07 13:44:00,
2013-10-07 09:49:00,70.7,64.9,29.56,North,0,0.0,0.0,82,0.00,,---,0.00,VWS V13.01,2013-10-07 13:49:00,
2013-10-07 09:54:00,70.7,64.9,29.56,North,0,0.0,0.0,82,0.00,,---,0.00,VWS V13.01,2013-10-07 13:54:00,
2013-10-07 09:59:00,70.9,65.1,29.56,North,0,0.0,0.0,82,0.00,,---,0.00,VWS V13.01,2013-10-07 13:59:00,
2013-10-07 10:04:00,71.1,65.3,29.56,North,0,0.0,0.0,82,0.00,,---,0.00,VWS V13.01,2013-10-07 14:04:00,
2013-10-07 10:09:00,71.2,64.8,29.56,North,0,0.0,0.0,80,0.00,,---,0.00,VWS V13.01,2013-10-07 14:09:00,
2013-10-07 10:14:00,71.2,64.4,29.56,North,0,0.0,0.0,79,0.00,,---,0.00,VWS V13.01,2013-10-07 14:14:00,
2013-10-07 10:24:00,71.6,64.0,29.56,North,0,0.0,0.0,77,0.00,,---,0.00,VWS V13.01,2013-10-07 14:24:00,
2013-10-07 10:29:00,71.6,63.6,29.56,North,0,0.0,0.0,76,0.00,,---,0.00,VWS V13.01,2013-10-07 14:29:00,
2013-10-07 10:34:00,71.8,63.8,29.56,North,0,0.0,0.0,76,0.00,,---,0.00,VWS V13.01,2013-10-07 14:34:00,
2013-10-07 10:39:00,72.1,63.4,29.56,North,0,0.0,0.0,74,0.00,,---,0.00,VWS V13.01,2013-10-07 14:39:00,
2013-10-07 10:44:00,72.3,62.8,29.53,North,0,0.0,0.0,72,0.00,,---,0.00,VWS V13.01,2013-10-07 14:44:00,
2013-10-07 10:49:00,72.7,61.1,29.53,North,0,0.0,0.0,67,0.00,,---,0.00,VWS V13.01,2013-10-07 14:49:00,
2013-10-07 10:54:00,72.7,61.5,29.53,North,0,0.0,0.0,68,0.00,,---,0.00,VWS V13.01,2013-10-07 14:54:00,
2013-10-07 10:59:00,72.5,60.5,29.53,North,0,0.0,0.0,66,0.00,,---,0.00,VWS V13.01,2013-10-07 14:59:00,
2013-10-07 11:04:00,72.3,59.9,29.53,North,0,0.0,0.0,65,0.00,,---,0.00,VWS V13.01,2013-10-07 15:04:00,
2013-10-07 11:09:00,72.5,60.1,29.53,North,0,0.0,0.0,65,0.00,,---,0.00,VWS V13.01,2013-10-07 15:09:00,
2013-10-07 11:14:00,72.3,61.2,29.53,North,0,0.0,0.0,68,0.00,,---,0.00,VWS V13.01,2013-10-07 15:14:00,
2013-10-07 11:19:00,72.5,60.5,29.53,North,0,0.0,0.0,66,0.00,,---,0.00,VWS V13.01,2013-10-07 15:19:00,
2013-10-07 11:24:00,72.9,60.8,29.53,North,0,0.0,0.0,66,0.00,,---,0.00,VWS V13.01,2013-10-07 15:24:00,
2013-10-07 11:29:00,73.0,58.8,29.53,North,0,0.0,0.0,61,0.00,,---,0.00,VWS V13.01,2013-10-07 15:29:00,
2013-10-07 11:34:00,73.0,57.4,29.53,North,0,0.0,0.0,58,0.00,,---,0.00,VWS V13.01,2013-10-07 15:34:00,
2013-10-07 11:39:00,73.2,57.6,29.53,North,0,0.0,0.0,58,0.00,,---,0.00,VWS V13.01,2013-10-07 15:39:00,
2013-10-07 11:44:00,73.2,56.6,29.53,North,0,0.0,0.0,56,0.00,,---,0.00,VWS V13.01,2013-10-07 15:44:00,
2013-10-07 11:49:00,73.2,55.6,29.53,North,0,0.0,0.0,54,0.00,,---,0.00,VWS V13.01,2013-10-07 15:49:00,
2013-10-07 11:54:00,73.2,55.1,29.53,North,0,0.0,0.0,53,0.00,,---,0.00,VWS V13.01,2013-10-07 15:54:00,
2013-10-07 11:59:00,73.4,54.7,29.53,North,0,0.0,0.0,52,0.00,,---,0.00,VWS V13.01,2013-10-07 15:59:00,
2013-10-07 12:04:00,73.4,54.7,29.53,North,0,0.0,0.0,52,0.00,,---,0.00,VWS V13.01,2013-10-07 16:04:00,
2013-10-07 12:09:00,73.6,53.8,29.53,North,0,0.0,0.0,50,0.00,,---,0.00,VWS V13.01,2013-10-07 16:09:00,
2013-10-07 12:14:00,73.8,52.3,29.50,North,0,0.0,0.0,47,0.00,,---,0.00,VWS V13.01,2013-10-07 16:14:00,
2013-10-07 12:19:00,73.6,52.1,29.50,North,0,0.0,0.0,47,0.00,,---,0.00,VWS V13.01,2013-10-07 16:19:00,
2013-10-07 12:24:00,73.9,53.0,29.50,North,0,0.0,0.0,48,0.00,,---,0.00,VWS V13.01,2013-10-07 16:24:00,
2013-10-07 12:29:00,74.1,52.6,29.50,North,0,0.0,0.0,47,0.00,,---,0.00,VWS V13.01,2013-10-07 16:29:00,
2013-10-07 12:34:00,73.9,53.0,29.50,North,0,0.0,0.0,48,0.00,,---,0.00,VWS V13.01,2013-10-07 16:34:00,
2013-10-07 12:44:00,73.6,52.7,29.50,North,0,0.0,0.0,48,0.00,,---,0.00,VWS V13.01,2013-10-07 16:44:00,
2013-10-07 12:49:00,73.2,52.9,29.50,North,0,0.0,0.0,49,0.00,,---,0.00,VWS V13.01,2013-10-07 16:49:00,
2013-10-07 12:54:00,73.2,53.5,29.50,North,0,0.0,0.0,50,0.00,,---,0.00,VWS V13.01,2013-10-07 16:54:00,
2013-10-07 12:59:00,73.2,53.5,29.47,North,0,0.0,0.0,50,0.00,,---,0.00,VWS V13.01,2013-10-07 16:59:00,
2013-10-07 13:04:00,73.2,55.1,29.47,North,0,0.0,0.0,53,0.00,,---,0.00,VWS V13.01,2013-10-07 17:04:00,
2013-10-07 13:09:00,72.7,55.6,29.47,North,0,0.0,0.0,55,0.08,,---,0.08,VWS V13.01,2013-10-07 17:09:00,
2013-10-07 13:19:00,72.1,57.5,29.47,North,0,0.0,0.0,60,0.08,,---,0.08,VWS V13.01,2013-10-07 17:19:00,
2013-10-07 13:24:00,72.1,57.5,29.47,North,0,0.0,0.0,60,0.08,,---,0.08,VWS V13.01,2013-10-07 17:24:00,
2013-10-07 13:29:00,72.3,58.1,29.47,North,0,0.0,0.0,61,0.08,,---,0.08,VWS V13.01,2013-10-07 17:29:00,
2013-10-07 13:34:00,72.7,56.1,29.47,North,0,0.0,0.0,56,0.08,,---,0.08,VWS V13.01,2013-10-07 17:34:00,
2013-10-07 13:39:00,72.7,55.1,29.47,North,0,0.0,0.0,54,0.08,,---,0.08,VWS V13.01,2013-10-07 17:39:00,
2013-10-07 13:44:00,72.9,54.2,29.47,North,0,0.0,0.0,52,0.08,,---,0.08,VWS V13.01,2013-10-07 17:44:00,
2013-10-07 13:49:00,72.9,54.2,29.47,North,0,0.0,0.0,52,0.08,,---,0.08,VWS V13.01,2013-10-07 17:49:00,
2013-10-07 13:54:00,72.9,53.7,29.47,North,0,0.0,0.0,51,0.08,,---,0.08,VWS V13.01,2013-10-07 17:54:00,
2013-10-07 13:59:00,72.9,53.2,29.47,North,0,0.0,0.0,50,0.08,,---,0.08,VWS V13.01,2013-10-07 17:59:00,
2013-10-07 14:04:00,72.9,53.7,29.47,North,0,0.0,0.0,51,0.08,,---,0.08,VWS V13.01,2013-10-07 18:04:00,
2013-10-07 14:09:00,72.9,53.7,29.47,North,0,0.0,0.0,51,0.08,,---,0.08,VWS V13.01,2013-10-07 18:09:00,
2013-10-07 14:14:00,72.9,54.8,29.44,North,0,0.0,0.0,53,0.00,,---,0.08,VWS V13.01,2013-10-07 18:14:00,
2013-10-07 14:19:00,72.9,54.2,29.44,North,0,0.0,0.0,52,0.00,,---,0.08,VWS V13.01,2013-10-07 18:19:00,
2013-10-07 14:24:00,73.2,54.0,29.44,North,0,0.0,0.0,51,0.00,,---,0.08,VWS V13.01,2013-10-07 18:24:00,
2013-10-07 14:29:00,73.6,53.8,29.44,North,0,0.0,0.0,50,0.00,,---,0.08,VWS V13.01,2013-10-07 18:29:00,
2013-10-07 14:34:00,73.6,52.7,29.44,North,0,0.0,0.0,48,0.00,,---,0.08,VWS V13.01,2013-10-07 18:34:00,
2013-10-07 14:39:00,73.6,52.1,29.44,North,0,0.0,0.0,47,0.00,,---,0.08,VWS V13.01,2013-10-07 18:39:00,
2013-10-07 14:44:00,73.6,52.1,29.44,North,0,0.0,0.0,47,0.00,,---,0.08,VWS V13.01,2013-10-07 18:44:00,
2013-10-07 14:49:00,73.4,52.0,29.44,North,0,0.0,0.0,47,0.00,,---,0.08,VWS V13.01,2013-10-07 18:49:00,
2013-10-07 14:54:00,73.4,52.5,29.44,North,0,0.0,0.0,48,0.00,,---,0.08,VWS V13.01,2013-10-07 18:54:00,
2013-10-07 14:59:00,73.2,51.8,29.44,North,0,0.0,0.0,47,0.00,,---,0.08,VWS V13.01,2013-10-07 18:59:00,
2013-10-07 15:04:00,73.4,52.5,29.44,North,0,0.0,0.0,48,0.00,,---,0.08,VWS V13.01,2013-10-07 19:04:00,
2013-10-07 15:09:00,73.2,51.2,29.44,North,0,0.0,0.0,46,0.00,,---,0.08,VWS V13.01,2013-10-07 19:09:00,
2013-10-07 15:14:00,73.4,51.4,29.44,North,0,0.0,0.0,46,0.00,,---,0.08,VWS V13.01,2013-10-07 19:14:00,
2013-10-07 15:19:00,73.4,51.4,29.44,North,0,0.0,0.0,46,0.00,,---,0.08,VWS V13.01,2013-10-07 19:19:00,
2013-10-07 15:24:00,73.4,51.4,29.44,North,0,0.0,0.0,46,0.00,,---,0.08,VWS V13.01,2013-10-07 19:24:00,
2013-10-07 15:29:00,73.0,52.8,29.44,North,0,0.0,0.0,49,0.00,,---,0.08,VWS V13.01,2013-10-07 19:29:00,
2013-10-07 15:34:00,72.7,55.6,29.44,North,0,0.0,0.0,55,0.00,,---,0.08,VWS V13.01,2013-10-07 19:34:00,
2013-10-07 15:39:00,72.1,58.4,29.44,North,0,0.0,0.0,62,0.00,,---,0.08,VWS V13.01,2013-10-07 19:39:00,
2013-10-07 15:44:00,72.0,59.1,29.44,North,0,0.0,0.0,64,0.00,,---,0.08,VWS V13.01,2013-10-07 19:44:00,
2013-10-07 15:49:00,71.8,60.7,29.44,North,0,0.0,0.0,68,0.00,,---,0.08,VWS V13.01,2013-10-07 19:49:00,
2013-10-07 15:54:00,71.8,61.1,29.44,North,0,0.0,0.0,69,0.00,,---,0.08,VWS V13.01,2013-10-07 19:54:00,
2013-10-07 15:59:00,71.8,61.5,29.44,North,0,0.0,0.0,70,0.00,,---,0.08,VWS V13.01,2013-10-07 19:59:00,
2013-10-07 16:04:00,72.0,61.2,29.44,North,0,0.0,0.0,69,0.00,,---,0.08,VWS V13.01,2013-10-07 20:04:00,
2013-10-07 16:14:00,72.1,59.7,29.41,North,0,0.0,0.0,65,0.00,,---,0.08,VWS V13.01,2013-10-07 20:14:00,
2013-10-07 16:19:00,72.3,59.5,29.41,North,0,0.0,0.0,64,0.00,,---,0.08,VWS V13.01,2013-10-07 20:19:00,
2013-10-07 16:24:00,72.5,57.8,29.41,North,0,0.0,0.0,60,0.00,,---,0.08,VWS V13.01,2013-10-07 20:24:00,
2013-10-07 16:29:00,72.5,55.4,29.41,North,0,0.0,0.0,55,0.00,,---,0.08,VWS V13.01,2013-10-07 20:29:00,
2013-10-07 16:39:00,72.3,55.8,29.41,North,0,0.0,0.0,56,0.04,,---,0.12,VWS V13.01,2013-10-07 20:39:00,
2013-10-07 16:44:00,70.5,49.9,29.47,North,0,0.0,0.0,48,0.08,,---,0.16,VWS V13.01,2013-10-07 20:44:00,
2013-10-07 16:49:00,69.6,53.2,29.47,North,0,0.0,0.0,56,0.08,,---,0.16,VWS V13.01,2013-10-07 20:49:00,
2013-10-07 16:54:00,69.1,54.6,29.47,North,0,0.0,0.0,60,0.12,,---,0.20,VWS V13.01,2013-10-07 20:54:00,
2013-10-07 16:59:00,68.9,55.8,29.47,North,0,0.0,0.0,63,0.12,,---,0.20,VWS V13.01,2013-10-07 20:59:00,
2013-10-07 17:04:00,68.5,57.2,29.47,North,0,0.0,0.0,67,0.16,,---,0.24,VWS V13.01,2013-10-07 21:04:00,
2013-10-07 17:09:00,68.4,57.8,29.47,North,0,0.0,0.0,69,0.16,,---,0.24,VWS V13.01,2013-10-07 21:09:00,
2013-10-07 17:19:00,68.0,57.5,29.47,North,0,0.0,0.0,69,0.16,,---,0.24,VWS V13.01,2013-10-07 21:19:00,
2013-10-07 17:24:00,67.8,57.7,29.47,North,0,0.0,0.0,70,0.16,,---,0.24,VWS V13.01,2013-10-07 21:24:00,
2013-10-07 17:29:00,67.6,57.9,29.47,North,0,0.0,0.0,71,0.16,,---,0.24,VWS V13.01,2013-10-07 21:29:00,
2013-10-07 17:34:00,67.5,57.7,29.47,North,0,0.0,0.0,71,0.16,,---,0.24,VWS V13.01,2013-10-07 21:34:00,
2013-10-07 17:39:00,67.3,58.3,29.47,North,0,0.0,0.0,73,0.20,,---,0.28,VWS V13.01,2013-10-07 21:39:00,
2013-10-07 17:44:00,67.1,59.3,29.47,North,0,0.0,0.0,76,0.16,,---,0.28,VWS V13.01,2013-10-07 21:44:00,
2013-10-07 17:49:00,67.1,59.7,29.47,North,0,0.0,0.0,77,0.12,,---,0.28,VWS V13.01,2013-10-07 21:49:00,
2013-10-07 17:54:00,66.9,59.5,29.47,North,0,0.0,0.0,77,0.16,,---,0.31,VWS V13.01,2013-10-07 21:54:00,
2013-10-07 17:59:00,66.7,59.3,29.47,North,0,0.0,0.0,77,0.12,,---,0.31,VWS V13.01,2013-10-07 21:59:00,
2013-10-07 18:04:00,66.7,59.7,29.47,North,0,0.0,0.0,78,0.12,,---,0.31,VWS V13.01,2013-10-07 22:04:00,
2013-10-07 18:09:00,66.7,59.7,29.47,North,0,0.0,0.0,78,0.08,,---,0.31,VWS V13.01,2013-10-07 22:09:00,
2013-10-07 18:14:00,66.6,59.5,29.47,North,0,0.0,0.0,78,0.08,,---,0.31,VWS V13.01,2013-10-07 22:14:00,
2013-10-07 18:19:00,66.6,59.8,29.47,North,0,0.0,0.0,79,0.08,,---,0.31,VWS V13.01,2013-10-07 22:19:00,
2013-10-07 18:24:00,66.6,59.8,29.47,North,0,0.0,0.0,79,0.08,,---,0.31,VWS V13.01,2013-10-07 22:24:00,
2013-10-07 18:29:00,66.6,59.8,29.50,North,0,0.0,0.0,79,0.08,,---,0.31,VWS V13.01,2013-10-07 22:29:00,
2013-10-07 18:34:00,66.6,59.8,29.50,North,0,0.0,0.0,79,0.08,,---,0.31,VWS V13.01,2013-10-07 22:34:00,
2013-10-07 18:39:00,66.4,59.7,29.50,North,0,0.0,0.0,79,0.08,,---,0.31,VWS V13.01,2013-10-07 22:39:00,
2013-10-07 18:44:00,66.4,60.0,29.50,North,0,0.0,0.0,80,0.04,,---,0.31,VWS V13.01,2013-10-07 22:44:00,
2013-10-07 18:49:00,66.6,60.2,29.50,North,0,0.0,0.0,80,0.04,,---,0.31,VWS V13.01,2013-10-07 22:49:00,
2013-10-07 18:54:00,66.6,60.2,29.50,North,0,0.0,0.0,80,0.04,,---,0.31,VWS V13.01,2013-10-07 22:54:00,
2013-10-07 18:59:00,66.6,60.2,29.50,North,0,0.0,0.0,80,0.00,,---,0.31,VWS V13.01,2013-10-07 22:59:00,
2013-10-07 19:04:00,66.6,60.2,29.50,North,0,0.0,0.0,80,0.00,,---,0.31,VWS V13.01,2013-10-07 23:04:00,
2013-10-07 19:09:00,66.6,60.2,29.50,North,0,0.0,0.0,80,0.00,,---,0.31,VWS V13.01,2013-10-07 23:09:00,
2013-10-07 19:14:00,66.2,59.5,29.50,North,0,0.0,0.0,79,0.00,,---,0.31,VWS V13.01,2013-10-07 23:14:00,
2013-10-07 19:19:00,65.8,57.7,29.50,North,0,0.0,0.0,75,0.00,,---,0.31,VWS V13.01,2013-10-07 23:19:00,
2013-10-07 19:24:00,65.7,55.6,29.50,North,0,0.0,0.0,70,0.00,,---,0.31,VWS V13.01,2013-10-07 23:24:00,
2013-10-07 19:29:00,65.5,55.0,29.50,North,0,0.0,0.0,69,0.00,,---,0.31,VWS V13.01,2013-10-07 23:29:00,
2013-10-07 19:34:00,65.3,54.1,29.50,North,0,0.0,0.0,67,0.00,,---,0.31,VWS V13.01,2013-10-07 23:34:00,
2013-10-07 19:39:00,65.3,54.9,29.50,North,0,0.0,0.0,69,0.00,,---,0.31,VWS V13.01,2013-10-07 23:39:00,
2013-10-07 19:44:00,65.1,54.7,29.53,North,0,0.0,0.0,69,0.00,,---,0.31,VWS V13.01,2013-10-07 23:44:00,
2013-10-07 19:49:00,64.9,54.5,29.53,North,0,0.0,0.0,69,0.00,,---,0.31,VWS V13.01,2013-10-07 23:49:00,
2013-10-07 19:54:00,64.9,55.3,29.53,North,0,0.0,0.0,71,0.00,,---,0.31,VWS V13.01,2013-10-07 23:54:00,
2013-10-07 19:59:00,64.6,55.4,29.53,North,0,0.0,0.0,72,0.00,,---,0.31,VWS V13.01,2013-10-07 23:59:00,
2013-10-07 20:04:00,64.2,54.2,29.53,North,0,0.0,0.0,70,0.00,,---,0.31,VWS V13.01,2013-10-08 00:04:00,
2013-10-07 20:09:00,64.2,53.8,29.53,North,0,0.0,0.0,69,0.00,,---,0.31,VWS V13.01,2013-10-08 00:09:00,
2013-10-07 20:14:00,64.0,52.5,29.53,North,0,0.0,0.0,66,0.00,,---,0.31,VWS V13.01,2013-10-08 00:14:00,
2013-10-07 20:19:00,63.9,51.5,29.53,North,0,0.0,0.0,64,0.00,,---,0.31,VWS V13.01,2013-10-08 00:19:00,
2013-10-07 20:24:00,63.5,51.1,29.53,North,0,0.0,0.0,64,0.00,,---,0.31,VWS V13.01,2013-10-08 00:24:00,
2013-10-07 20:29:00,63.5,51.5,29.53,North,0,0.0,0.0,65,0.00,,---,0.31,VWS V13.01,2013-10-08 00:29:00,
2013-10-07 20:39:00,63.1,52.0,29.53,North,0,0.0,0.0,67,0.00,,---,0.31,VWS V13.01,2013-10-08 00:39:00,
2013-10-07 20:44:00,63.0,51.4,29.53,North,0,0.0,0.0,66,0.00,,---,0.31,VWS V13.01,2013-10-08 00:44:00,
2013-10-07 20:49:00,63.0,51.0,29.53,North,0,0.0,0.0,65,0.00,,---,0.31,VWS V13.01,2013-10-08 00:49:00,
2013-10-07 20:54:00,63.0,52.2,29.53,North,0,0.0,0.0,68,0.00,,---,0.31,VWS V13.01,2013-10-08 00:54:00,
2013-10-07 20:59:00,63.0,51.8,29.53,North,0,0.0,0.0,67,0.00,,---,0.31,VWS V13.01,2013-10-08 00:59:00,
2013-10-07 21:04:00,62.8,50.0,29.53,North,0,0.0,0.0,63,0.00,,---,0.31,VWS V13.01,2013-10-08 01:04:00,
2013-10-07 21:09:00,62.6,49.8,29.53,North,0,0.0,0.0,63,0.00,,---,0.31,VWS V13.01,2013-10-08 01:09:00,
2013-10-07 21:14:00,62.2,47.8,29.53,North,0,0.0,0.0,59,0.00,,---,0.31,VWS V13.01,2013-10-08 01:14:00,
2013-10-07 21:19:00,62.2,49.1,29.53,North,0,0.0,0.0,62,0.00,,---,0.31,VWS V13.01,2013-10-08 01:19:00,
2013-10-07 21:24:00,62.1,47.1,29.53,North,0,0.0,0.0,58,0.00,,---,0.31,VWS V13.01,2013-10-08 01:24:00,
2013-10-07 21:29:00,61.9,45.5,29.53,North,0,0.0,0.0,55,0.00,,---,0.31,VWS V13.01,2013-10-08 01:29:00,
2013-10-07 21:34:00,61.7,43.4,29.53,North,0,0.0,0.0,51,0.00,,---,0.31,VWS V13.01,2013-10-08 01:34:00,
2013-10-07 21:39:00,61.5,42.2,29.53,North,0,0.0,0.0,49,0.00,,---,0.31,VWS V13.01,2013-10-08 01:39:00,
2013-10-07 21:44:00,61.3,41.5,29.53,North,0,0.0,0.0,48,0.00,,---,0.31,VWS V13.01,2013-10-08 01:44:00,
2013-10-07 21:54:00,61.3,41.5,29.53,North,0,0.0,0.0,48,0.00,,---,0.31,VWS V13.01,2013-10-08 01:54:00,
2013-10-07 21:59:00,61.3,41.5,29.56,North,0,0.0,0.0,48,0.00,,---,0.31,VWS V13.01,2013-10-08 01:59:00,
2013-10-07 22:09:00,61.2,40.8,29.56,North,0,0.0,0.0,47,0.00,,---,0.31,VWS V13.01,2013-10-08 02:09:00,
2013-10-07 22:14:00,61.0,40.1,29.56,North,0,0.0,0.0,46,0.00,,---,0.31,VWS V13.01,2013-10-08 02:14:00,
2013-10-07 22:19:00,61.0,41.2,29.56,North,0,0.0,0.0,48,0.00,,---,0.31,VWS V13.01,2013-10-08 02:19:00,
2013-10-07 22:24:00,60.8,40.5,29.56,North,0,0.0,0.0,47,0.00,,---,0.31,VWS V13.01,2013-10-08 02:24:00,
2013-10-07 22:29:00,60.6,40.8,29.56,North,0,0.0,0.0,48,0.00,,---,0.31,VWS V13.01,2013-10-08 02:29:00,
2013-10-07 22:34:00,60.4,40.7,29.56,North,0,0.0,0.0,48,0.00,,---,0.31,VWS V13.01,2013-10-08 02:34:00,
2013-10-07 22:39:00,60.4,40.1,29.56,North,0,0.0,0.0,47,0.00,,---,0.31,VWS V13.01,2013-10-08 02:39:00,
2013-10-07 22:44:00,60.3,40.0,29.56,North,0,0.0,0.0,47,0.00,,---,0.31,VWS V13.01,2013-10-08 02:44:00,
2013-10-07 22:49:00,60.1,41.4,29.56,North,0,0.0,0.0,50,0.00,,---,0.31,VWS V13.01,2013-10-08 02:49:00,
2013-10-07 22:54:00,59.7,42.1,29.56,North,0,0.0,0.0,52,0.00,,---,0.31,VWS V13.01,2013-10-08 02:54:00,
2013-10-07 22:59:00,59.4,41.8,29.56,North,0,0.0,0.0,52,0.00,,---,0.31,VWS V13.01,2013-10-08 02:59:00,
2013-10-07 23:04:00,59.5,41.4,29.56,North,0,0.0,0.0,51,0.00,,---,0.31,VWS V13.01,2013-10-08 03:04:00,
2013-10-07 23:09:00,59.5,42.4,29.56,North,0,0.0,0.0,53,0.00,,---,0.31,VWS V13.01,2013-10-08 03:09:00,
2013-10-07 23:14:00,59.5,43.8,29.56,North,0,0.0,0.0,56,0.00,,---,0.31,VWS V13.01,2013-10-08 03:14:00,
2013-10-07 23:19:00,59.2,43.5,29.56,North,0,0.0,0.0,56,0.00,,---,0.31,VWS V13.01,2013-10-08 03:19:00,
2013-10-07 23:24:00,59.2,44.0,29.56,North,0,0.0,0.0,57,0.00,,---,0.31,VWS V13.01,2013-10-08 03:24:00,
2013-10-07 23:34:00,58.8,42.2,29.56,North,0,0.0,0.0,54,0.00,,---,0.31,VWS V13.01,2013-10-08 03:34:00,
2013-10-07 23:39:00,58.8,41.2,29.56,North,0,0.0,0.0,52,0.00,,---,0.31,VWS V13.01,2013-10-08 03:39:00,
2013-10-07 23:44:00,58.8,41.2,29.56,North,0,0.0,0.0,52,0.00,,---,0.31,VWS V13.01,2013-10-08 03:44:00,
2013-10-07 23:49:00,58.8,41.7,29.56,North,0,0.0,0.0,53,0.00,,---,0.31,VWS V13.01,2013-10-08 03:49:00,
2013-10-07 23:54:00,58.8,41.2,29.56,North,0,0.0,0.0,52,0.00,,---,0.31,VWS V13.01,2013-10-08 03:54:00,